Vertical_Velocity
-1 -1 -1 -1 -2 -0 -1 1 -1 0 1 -0 -3 -3 -3 -0 -1 -0 -2 -3 -3 -3
0 -3 -2 -2 -2 -4 -2 0 -1 -1 -0 -0 -2 -2 -1 -2 -1 -2 -2 -1 -0 -2
-1 1 -0 -1 -1 -1 -4 -1 -3 -1 -1 -1 0 -1 -1 -1 -1 -2 -1 -0 1 1
-0 -2 -0 0 1 1 -2 -2 -2 -1 -2 -2 -0 -0 -0 -1 -0 -2 -1 -0 0 3
1 -1 -1 -0 -1 -1 0 -1 -3 -1 -1 -1 -1 -0 -0 -1 -2 -2 -0 -0 -3 3
-4 -2 -0 -1 -3 -3 -0 -1 -2 -3 -0 1 0 -1 0 -1 0 -1 -1 -0 -1 3
-3 -2 -1 -1 0 -0 0 1 -0 -2 -1 -1 -1 1 0 -1 -1 -1 0 -0 -0 -2
-1 -0 -1 -1 -1 0 0 -1 -1 -1 -1 -0 -1 -2 -3 -1 -0 -0 -0 -2 -3 -5
0 -1 -1 -0 0 -0 -2 -2 -2 -2 -2 -3 -5 -1 0 -2 1 1 -1 -0 -1 0
-1 -2 -1 -2 -2 -2 -2 -3 -1 -3 -5 -2 -1 -0 1 1 -1 -2 -3 -3 -0 -2
-1 -1 -2 -1 -3 -1 -3 -3 -3 -2 -1 -0 1 -3 1 1 -2 -4 -0 -1 -2 -4
-1 -1 -1 -2 -1 -2 -1 -1 -1 1 1 -4 -1 -2 -1 -0 -2 0 -1 -2 -1 -3
-2 -1 -1 -1 -0 0 -1 2 0 -2 -2 -0 -0 0 0 1 -1 -1 -1 3 0 -0
-1 -1 -2 0 -1 -1 0 -1 -2 0 0 -0 -2 1 -1 2 -0 -2 -2 -3 -1 0
Height
2992 2989 2987 2986 2984 2983 2983 2982 2980 2979 2977 2974 2972 2970 2968 2968 2967 2967 2966 2966 2965 2964
2983 2982 2980 2978 2977 2976 2974 2974 2972 2970 2969 2967 2964 2962 2960 2960 2959 2957 2957 2956 2955 2955
2974 2972 2971 2970 2969 2967 2966 2964 2963 2961 2960 2959 2956 2954 2952 2952 2951 2950 2949 2948 2947 2946
2967 2966 2966 2964 2961 2959 2958 2956 2955 2954 2952 2951 2948 2945 2944 2943 2943 2942 2942 2941 2939 2939
2961 2960 2959 2957 2954 2952 2950 2948 2946 2945 2943 2941 2939 2937 2935 2935 2934 2934 2934 2933 2932 2931
2955 2954 2951 2949 2946 2944 2942 2940 2937 2936 2934 2932 2930 2929 2927 2926 2927 2926 2925 2924 2923 2923
2948 2946 2944 2941 2938 2936 2934 2932 2930 2928 2926 2924 2922 2920 2919 2919 2918 2918 2917 2916 2915 2914
2941 2938 2936 2934 2931 2929 2926 2924 2922 2920 2917 2915 2913 2912 2911 2911 2910 2909 2908 2908 2907 2906
2932 2931 2929 2927 2924 2922 2919 2917 2914 2911 2909 2907 2904 2904 2903 2903 2902 2901 2901 2900 2899 2899
2924 2923 2922 2920 2917 2914 2912 2909 2906 2904 2901 2899 2898 2896 2896 2895 2893 2893 2892 2891 2891 2890
2917 2916 2914 2911 2909 2907 2905 2902 2899 2897 2894 2892 2891 2889 2889 2887 2885 2884 2884 2883 2881 2880
2910 2908 2907 2905 2902 2900 2898 2895 2893 2891 2888 2886 2885 2882 2881 2880 2878 2877 2876 2874 2873 2871
2903 2901 2900 2898 2896 2894 2892 2890 2887 2885 2882 2880 2879 2876 2874 2873 2870 2869 2867 2867 2865 2863
2896 2895 2894 2892 2890 2888 2886 2884 2881 2879 2877 2875 2872 2870 2868 2866 2863 2861 2859 2858 2856 2854